FW7460 Weather Reports


time (UTC)temp
F
wind
direction
speed
knots
gust
knots
rain 1hr
in
rain 24hr
in
rain mn
in
humidity
%
barometer
mb
20260505093024 46 327 1.7 2.6 0.00 0.00 0.00 94 1005.8
20260505092521 46 336 2.6 4.3 0.00 0.00 0.00 94 1005.5
20260505092020 46 314 4.3 5.2 0.00 0.00 0.00 95 1005.6
20260505091516 46 313 5.2 6.1 0.00 0.00 0.00 95 1005.7
20260505091014 46 314 3.5 6.1 0.00 0.00 0.00 95 1005.7
20260505090512 46 346 4.3 5.2 0.00 0.00 0.00 95 1005.5
20260505090010 46 339 3.5 4.3 0.00 0.00 0.00 95 1005.4
20260505085508 46 332 2.6 4.3 0.00 0.00 0.00 95 1005.4
20260505085006 46 325 2.6 2.6 0.00 0.00 0.00 94 1005.5
20260505084503 46 287 2.6 4.3 0.00 0.00 0.00 94 1005.4
20260505084001 46 314 2.6 2.6 0.00 0.00 0.00 94 1005.4
20260505083458 46 331 0.0 1.7 0.00 0.00 0.00 94 1005.3
20260505082954 46 115 2.6 2.6 0.00 0.00 0.00 94 1005.5
20260505082450 46 208 1.7 1.7 0.00 0.00 0.00 94 1005.3
20260505081947 46 296 0.9 1.7 0.00 0.00 0.00 94 1005.6
20260505081444 47 304 0.9 0.9 0.00 0.00 0.00 93 1005.6
20260505080940 47 93 0.0 0.0 0.00 0.00 0.00 93 1005.7
20260505080437 47 158 1.7 2.6 0.00 0.00 0.00 93 1005.5
20260505075932 47 91 2.6 4.3 0.00 0.00 0.00 93 1005.5
20260505075429 47 105 3.5 4.3 0.00 0.00 0.00 93 1005.5
20260505074927 47 87 3.5 4.3 0.00 0.00 0.00 93 1005.5
20260505074424 47 115 1.7 4.3 0.00 0.00 0.00 93 1005.7
20260505073921 47 143 2.6 4.3 0.00 0.00 0.00 93 1005.7
20260505073419 47 100 1.7 2.6 0.00 0.00 0.00 93 1006.0
20260505072916 47 177 1.7 1.7 0.00 0.00 0.00 93 1006.2
20260505072412 47 209 2.6 2.6 0.00 0.00 0.00 93 1006.1
20260505071908 47 109 3.5 4.3 0.00 0.00 0.00 94 1006.1
20260505071404 47 100 2.6 2.6 0.00 0.00 0.00 94 1006.4
20260505070902 47 244 0.9 0.9 0.00 0.00 0.00 94 1006.3
20260505070358 47 321 0.0 0.0 0.00 0.00 0.00 94 1006.6
20260505065854 47 285 0.9 1.7 0.00 0.00 0.00 94 1006.6
20260505065351 47 351 0.0 2.6 0.00 0.00 0.00 94 1006.4
20260505064848 47 338 0.0 1.7 0.00 0.00 0.00 94 1006.4
20260505064345 47 135 2.6 5.2 0.00 0.00 0.00 94 1006.6
20260505063844 46 160 2.6 4.3 0.00 0.00 0.00 94 1006.6
20260505063339 46 331 0.0 0.0 0.00 0.00 0.00 95 1006.6
20260505062836 47 94 1.7 2.6 0.00 0.00 0.00 95 1006.6
20260505062333 47 100 4.3 5.2 0.00 0.00 0.00 95 1006.6
20260505061830 47 99 2.6 2.6 0.00 0.00 0.00 95 1006.6
20260505061328 46 69 2.6 2.6 0.00 0.00 0.00 95 1006.6
20260505060825 46 354 0.0 0.0 0.00 0.00 0.00 95 1006.4
20260505060322 46 317 0.0 0.0 0.00 0.00 0.00 95 1006.7
20260505055818 46 323 0.0 0.9 0.00 0.12 0.12 95 1006.7
20260505055314 46 326 0.9 1.7 0.00 0.12 0.12 94 1006.8
20260505054812 46 291 1.7 1.7 0.00 0.12 0.12 94 1006.7
20260505054308 46 1 0.0 0.0 0.00 0.12 0.12 94 1006.8
20260505053807 46 12 1.7 1.7 0.00 0.12 0.12 94 1006.9
20260505053303 47 326 0.0 0.9 0.00 0.12 0.12 94 1006.7
20260505052800 47 2 1.7 2.6 0.00 0.12 0.12 94 1006.8
20260505052257 47 345 0.0 0.0 0.00 0.12 0.12 94 1006.8
20260505051754 47 4 0.9 2.6 0.00 0.12 0.12 94 1006.8
20260505051252 47 41 4.3 5.2 0.00 0.12 0.12 94 1006.9
20260505050750 47 20 0.9 4.3 0.00 0.12 0.12 94 1006.7
20260505050248 47 83 2.6 4.3 0.00 0.12 0.12 94 1006.9
20260505041718 47 318 1.7 2.6 0.05 0.08 0.08 92 1007.3
20260505041215 47 313 3.5 5.2 0.07 0.07 0.07 91 1007.4
20260505040712 47 305 4.3 6.1 0.07 0.07 0.07 91 1007.4
20260505040209 47 320 1.7 4.3 0.05 0.06 0.06 90 1007.4
20260505035706 47 338 3.5 5.2 0.17 0.06 0.06 90 1007.1
20260505035202 48 327 3.5 5.2 0.12 0.05 0.05 89 1007.1
20260505034659 49 331 3.5 4.3 0.00 0.03 0.03 85 1007.3
20260505034156 49 331 3.5 4.3 0.00 0.03 0.03 85 1007.0
20260505033652 49 312 2.6 2.6 0.07 0.03 0.03 83 1006.8
20260505033151 49 298 1.7 2.6 0.07 0.03 0.03 81 1006.8
20260505032648 49 289 3.5 4.3 0.12 0.02 0.02 82 1006.8
20260505032139 49 235 4.3 4.3 0.12 0.02 0.02 80 1006.4
20260505031636 51 191 6.1 7.8 0.00 0.00 0.00 75 1006.4
20260505031132 52 217 7.0 14.8 0.00 0.00 0.00 71 1006.6
20260505030629 53 221 9.6 12.2 0.00 0.00 0.00 65 1006.2
20260505030125 53 227 11.3 12.2 0.00 0.00 0.00 63 1006.3
20260505025621 53 236 6.1 8.7 0.00 0.00 0.00 64 1006.3
20260505025120 53 224 7.8 13.0 0.00 0.00 0.00 63 1006.0
20260505024617 53 218 5.2 6.1 0.00 0.00 0.00 63 1006.0
20260505024114 53 213 3.5 6.1 0.00 0.00 0.00 62 1005.7
20260505023611 53 286 1.7 2.6 0.00 0.00 0.00 63 1005.7
20260505023109 53 220 2.6 2.6 0.00 0.00 0.00 64 1005.7
20260505022606 53 307 1.7 1.7 0.00 0.00 0.00 64 1005.5
20260505022103 53 294 1.7 4.3 0.00 0.00 0.00 64 1005.5
20260505021559 53 272 2.6 4.3 0.00 0.00 0.00 65 1005.4
20260505021056 53 295 4.3 5.2 0.00 0.00 0.00 65 1005.6
20260505020556 53 297 2.6 2.6 0.00 0.00 0.00 67 1005.5
20260505020053 53 295 2.6 2.6 0.00 0.00 0.00 66 1005.3
20260505015550 53 321 1.7 1.7 0.00 0.00 0.00 64 1005.3
20260505015047 53 317 0.9 0.9 0.00 0.00 0.00 64 1005.1
20260505014544 54 263 1.7 2.6 0.00 0.00 0.00 64 1005.4
20260505014041 54 299 0.9 0.9 0.00 0.00 0.00 65 1005.0
20260505013537 55 349 1.7 6.1 0.00 0.00 0.00 63 1004.7
20260505013035 56 309 0.9 0.9 0.00 0.00 0.00 58 1004.7
20260505012533 56 321 0.9 2.6 0.00 0.00 0.00 57 1005.0
20260505012030 56 277 0.9 2.6 0.00 0.00 0.00 57 1004.9
20260505011525 56 242 2.6 2.6 0.00 0.00 0.00 57 1005.0
20260505011023 55 292 0.9 1.7 0.00 0.00 0.00 58 1004.9
20260505010518 55 299 0.9 1.7 0.00 0.00 0.00 60 1004.9
20260505010015 55 290 0.9 1.7 0.00 0.00 0.00 62 1004.8
20260505005512 55 294 1.7 4.3 0.00 0.00 0.00 61 1005.0
20260505005009 55 310 4.3 7.0 0.00 0.00 0.00 62 1004.7
20260505004506 55 334 8.7 9.6 0.00 0.00 0.00 63 1005.3
20260505004003 55 282 10.4 13.9 0.00 0.00 0.00 61 1004.9
20260505003500 56 313 11.3 13.0 0.00 0.00 0.00 57 1005.1
20260505002956 57 294 5.2 8.7 0.00 0.00 0.00 55 1005.0
20260505002452 57 346 9.6 14.8 0.00 0.00 0.00 53 1005.1
20260505001951 58 258 6.1 11.3 0.00 0.00 0.00 50 1004.9
20260505001448 59 326 10.4 13.9 0.00 0.00 0.00 46 1005.0
20260505000945 59 323 5.2 14.8 0.00 0.00 0.00 46 1004.9
20260505000443 59 326 8.7 9.6 0.00 0.00 0.00 46 1004.7
20260504235940 59 297 7.0 7.8 0.00 0.00 0.00 46 1004.8
20260504235437 59 325 11.3 13.9 0.00 0.00 0.00 44 1004.8
20260504234933 59 341 9.6 11.3 0.00 0.00 0.00 44 1004.6
20260504234431 60 326 7.8 13.0 0.00 0.00 0.00 43 1004.4
20260504233927 60 338 12.2 14.8 0.00 0.00 0.00 43 1004.2
20260504233423 61 300 6.1 9.6 0.00 0.00 0.00 41 1003.8
20260504232920 61 346 9.6 14.8 0.00 0.00 0.00 40 1003.8
20260504232417 61 323 11.3 13.9 0.00 0.00 0.00 40 1003.7
20260504231914 61 312 7.8 12.2 0.00 0.00 0.00 40 1003.4
20260504231410 61 291 8.7 12.2 0.00 0.00 0.00 40 1003.6
20260504230906 61 322 8.7 12.2 0.00 0.00 0.00 41 1003.3
20260504230404 62 276 11.3 19.1 0.00 0.00 0.00 40 1003.4
20260504225902 62 141 11.3 13.0 0.00 0.00 0.00 39 1003.3
20260504225359 62 311 11.3 15.6 0.00 0.00 0.00 38 1003.1
20260504224856 62 319 12.2 14.8 0.00 0.00 0.00 38 1003.0
20260504224352 62 300 8.7 14.8 0.00 0.00 0.00 37 1002.8
20260504223849 63 308 7.8 21.7 0.00 0.00 0.00 37 1003.1
20260504223345 62 3 7.0 14.8 0.00 0.00 0.00 37 1003.0
20260504222842 63 324 13.0 18.2 0.00 0.00 0.00 36 1002.9
20260504222338 65 335 11.3 21.7 0.00 0.00 0.00 34 1003.0
20260504221837 68 65 5.2 7.8 0.00 0.00 0.00 27 1002.7
20260504221333 68 351 5.2 7.8 0.00 0.00 0.00 28 1002.3
20260504220831 69 40 7.8 8.7 0.00 0.00 0.00 27 1002.3
20260504220327 68 3 7.0 8.7 0.00 0.00 0.00 28 1002.2
20260504215825 68 337 6.1 8.7 0.00 0.00 0.00 29 1002.4
20260504215321 68 310 6.1 7.8 0.00 0.00 0.00 29 1002.2
20260504214817 68 327 6.1 8.7 0.00 0.00 0.00 29 1002.6
20260504214314 68 322 7.0 11.3 0.00 0.00 0.00 29 1002.4
20260504213810 68 339 5.2 7.8 0.00 0.00 0.00 28 1002.4
20260504213306 67 336 4.3 7.0 0.00 0.00 0.00 29 1002.4
20260504212804 67 300 5.2 7.8 0.00 0.00 0.00 30 1002.7
20260504212300 67 259 4.3 8.7 0.00 0.00 0.00 31 1002.8
20260504211758 67 342 3.5 9.6 0.00 0.00 0.00 32 1002.8
20260504211254 66 129 4.3 13.0 0.00 0.00 0.00 32 1002.9
20260504210751 67 298 9.6 11.3 0.00 0.00 0.00 31 1002.9
20260504210248 67 339 6.1 8.7 0.00 0.00 0.00 31 1003.1
20260504205745 67 347 3.5 7.8 0.00 0.00 0.00 31 1003.0
20260504205243 66 325 4.3 8.7 0.00 0.00 0.00 32 1003.1
20260504204741 67 286 7.0 17.4 0.00 0.00 0.00 32 1003.4
20260504204239 66 312 7.0 19.1 0.00 0.00 0.00 34 1003.1
20260504203738 65 351 10.4 35.6 0.00 0.00 0.00 32 1003.3
20260504203235 66 310 13.9 15.6 0.00 0.00 0.00 31 1003.3
20260504202735 65 26 4.3 13.0 0.00 0.00 0.00 33 1003.5
20260504202233 65 337 7.8 19.1 0.00 0.00 0.00 32 1003.5
20260504201730 65 281 7.8 15.6 0.00 0.00 0.00 32 1003.4
20260504201227 66 267 12.2 14.8 0.00 0.00 0.00 32 1003.1
20260504200725 66 13 8.7 18.2 0.00 0.00 0.00 31 1003.0
20260504200220 66 335 7.8 11.3 0.00 0.00 0.00 32 1003.5
20260504195717 66 324 11.3 17.4 0.00 0.00 0.00 32 1003.4
20260504195213 66 315 11.3 15.6 0.00 0.00 0.00 31 1003.6
20260504194710 68 343 10.4 15.6 0.00 0.00 0.00 30 1003.6
20260504194206 68 341 11.3 15.6 0.00 0.00 0.00 29 1003.4
20260504193702 67 346 8.7 14.8 0.00 0.00 0.00 32 1003.5
20260504193200 66 4 7.0 19.1 0.00 0.00 0.00 33 1003.6
20260504192658 65 2 7.8 13.0 0.00 0.00 0.00 33 1003.5
20260504192156 66 337 11.3 13.9 0.00 0.00 0.00 32 1003.4
20260504191654 66 338 9.6 21.7 0.00 0.00 0.00 33 1003.4
20260504191150 68 329 14.8 19.1 0.00 0.00 0.00 32 1003.0
20260504190646 67 334 12.2 22.6 0.00 0.00 0.00 32 1003.0
20260504190143 68 292 11.3 15.6 0.00 0.00 0.00 30 1003.3
20260504185639 67 327 16.5 32.2 0.00 0.00 0.00 31 1003.4
20260504185136 66 303 19.1 35.6 0.00 0.00 0.00 32 1003.6
20260504184632 67 358 11.3 18.2 0.00 0.00 0.00 32 1003.1
20260504184127 66 337 12.2 23.5 0.00 0.00 0.00 32 1003.4
20260504183624 68 355 10.4 18.2 0.00 0.00 0.00 29 1003.4
20260504183122 68 7 6.1 17.4 0.00 0.00 0.00 29 1003.4
20260504182620 67 329 13.9 17.4 0.00 0.00 0.00 27 1003.6
20260504182117 70 4 7.8 12.2 0.00 0.00 0.00 25 1003.1
20260504181614 69 7 8.7 12.2 0.00 0.00 0.00 25 1002.8
20260504181111 69 26 8.7 13.0 0.00 0.00 0.00 28 1003.0
20260504180611 69 326 7.0 14.8 0.00 0.00 0.00 29 1003.3
20260504180109 70 12 10.4 14.8 0.00 0.00 0.00 27 1003.0
20260504175606 69 322 5.2 12.2 0.00 0.00 0.00 28 1002.9
20260504175103 70 1 8.7 17.4 0.00 0.00 0.00 24 1003.0
20260504174601 70 5 7.8 9.6 0.00 0.00 0.00 24 1003.1
20260504174057 70 330 4.3 7.0 0.00 0.00 0.00 26 1003.0
20260504173554 70 326 0.0 2.6 0.00 0.00 0.00 23 1003.1
20260504173052 69 248 6.1 8.7 0.00 0.00 0.00 25 1003.1
20260504172547 69 332 4.3 6.1 0.00 0.00 0.00 24 1003.0
20260504172044 70 256 5.2 8.7 0.00 0.00 0.00 23 1003.4
20260504171541 71 262 6.1 9.6 0.00 0.00 0.00 23 1003.5
20260504171038 71 193 9.6 11.3 0.00 0.00 0.00 23 1003.5
20260504170534 71 310 1.7 5.2 0.00 0.00 0.00 25 1003.7
20260504150912 64 205 9.6 13.9 0.00 0.00 0.00 28 1004.9
20260504150409 63 234 11.3 20.0 0.00 0.00 0.00 28 1005.0
20260504140835 57 339 1.7 7.0 0.00 0.00 0.00 32 1005.1
20260504140331 58 201 9.6 12.2 0.00 0.00 0.00 31 1005.1
20260504130800 53 162 11.3 15.6 0.00 0.00 0.00 36 1004.9
20260504130256 53 182 6.1 20.0 0.00 0.00 0.00 36 1004.8
20260504120220 52 149 7.8 13.0 0.00 0.00 0.00 37 1004.8
20260504110641 51 179 2.6 8.7 0.00 0.00 0.00 39 1005.3
20260504110137 51 191 7.0 14.8 0.00 0.00 0.00 38 1004.8
20260504100603 51 94 2.6 2.6 0.00 0.00 0.00 40 1005.3